Regional Weather Roundup
Issued by NWS Lake Charles, LA

Home | Current Version | Previous Version | Text Only | Print | Product List | Glossary On
Versions: 1 2 3 4 5 6 7 8 9 10 11 12 13 14 15 16 17 18 19 20 21 22 23 24 25 26 27 28 29 30 31 32 33 34 35 36 37 38 39 40 41 42 43 44 45 46 47 48 49 50
000
ASUS44 KLCH 020510
RWRLCH
RWRLCH
REGIONAL WEATHER ROUNDUP
NATIONAL WEATHER SERVICE LAKE CHARLES LA
1200 AM CDT TUE SEP 02 2014

Note: "fair" indicates few or no clouds below 12,000 feet with no
significant weather and/or obstructions to visibility.


ACROSS SOUTHEAST TEXAS

CITY           SKY/WX    TMP DP  RH WIND       PRES   REMARKS
BEAUMONT       CLEAR     81  76  84 S9        29.95F
BEAUMONT CITY    N/A     80  78  94 SE6       29.96F
ORANGE         CLEAR     80  80 100 S6        29.98S
JASPER         CLEAR     76  74  91 SE5       29.99R
$$

ACROSS CENTRAL LOUISIANA

CITY           SKY/WX    TMP DP  RH WIND       PRES   REMARKS
LEESVILLE      PTCLDY    77  75  94 SE7       29.98S
FULLERTON        N/A     78  75  90 CALM      29.96S
ALEXANDRIA INT CLEAR     76  75  97 SE7       29.97F
ESLER FIELD    CLEAR     78  74  87 S3        29.98F
DERIDDER         N/A     78  76  95 CALM      29.99S
OAKDALE        CLOUDY    76  75  95 CALM      29.98F
OPELOUSAS        N/A     76  75  96 SE5       30.00S
$$

ACROSS SOUTHWEST AND SOUTH CENTRAL LOUISIANA

CITY           SKY/WX    TMP DP  RH WIND       PRES   REMARKS
SULPHUR        PTCLDY    81  79  93 SE6       29.97F
LAKE CHARLES   PTCLDY    80  77  90 S7        29.96F
CHENNAULT INT  PTCLDY    79  75  90 SE7       29.98F
CAMERON PHI    PTCLDY    84  77  79 S14       29.98F
DEQUINCY         N/A     78  77  96 SE6       29.96F
JENNINGS         N/A     78  77  96 SE3       29.98S
LAFAYETTE      CLEAR     78  76  93 SE3       29.99F
NEW IBERIA     PTCLDY    79  77  94 SE7       30.00F
ABBEVILLE        N/A     79  78  97 SE7       29.99S
PATTERSON        N/A     77  75  94 CALM      30.03F
SALT POINT       N/A     86  78  77 VRB3      30.00F
$$

SELECTED SITES ACROSS THE REGION

CITY           SKY/WX    TMP DP  RH WIND       PRES   REMARKS
HOUSTON BUSH   PTCLDY    81  77  89 S6        29.94F
HOUSTON HOBBY  PTCLDY    81  77  88 SE7       29.94F
GALVESTON      CLEAR     84  78  82 SE17      29.96F
COLLEGE STAT   CLEAR     82  74  76 S10       29.94S
CONROE         CLEAR     77  75  93 SE3       29.96S
HUNTSVILLE     CLEAR     81  75  82 VRB6      29.94F
LUFKIN         CLEAR     80  75  84 SE6       29.95F
SHREVEPORT     CLEAR     80  75  84 S7        29.95R
MONROE         CLEAR     77  74  90 S7        29.98S
NATCHEZ MS     CLEAR     77  73  88 S9        30.00F
BATON ROUGE    CLOUDY    79  75  87 SE5       30.00F
N.O. INTL ARPT MOCLDY    81  75  82 S9        30.02F
SLIDELL        CLOUDY    77  74  90 CALM      30.01F
$$

MARINE REPORTS

STATION/POSITION TIME  TEMP    WIND        PRES    VSBY  WAVE
                       AIR SEA DIR/SP/G                  HT/PER
                 (UTC) (F)     (DEG/KT/KT) (MB)    (MI)  (FT/S)
BUOY 30 S HIGH I 0500   85 85  160/ 16/ 19 1013.9F         3/ 5
SEA RIM ST PARK  0500   83     170/ 13/ 17 1015.0F
PORT ARTHUR      0500      85  170/  6/  9 1014.6F
SABINE PASS N    0500   83 84  180/  9/ 12 1014.8F
TEXAS POINT      0500   83 85  160/ 15/ 18 1014.8F
CALCASIEU PASS   0500   84 85  190/ 13/ 16 1016.1F
LK CHARLES BEACH 0500   80 83              1015.5F
MARSH ISLAND     NOT AVBL
FRESH WATER LOCK 0500   83 85  140/ 10/ 14 1015.5F
AMERADA PASS     0500   82 86  150/  5/  8 1016.1F
$$



USA.gov is the U.S. government's official web portal to all federal, state and local government web resources and services.